Home > Weather > Kapfenberg > Past weeks

Flag for Austria Weather for the Past 2 Weeks in Kapfenberg, Styria, Austria

Now
48 °F

Partly cloudy.


Feels Like: 42 °F
Forecast: 26 / 40 °F
Wind: 17 mph from Southwest

Location: Zeltweg

Current Time: Feb 9, 2016 at 7:53:52 PM

Latest Report: Feb 9, 2016 at 6:50 PM


Visibility: 12 mi

Pressure: 29.50 "Hg (27.75 "Hg at 504m altitude)

Humidity: 62%

Dew point: 36 °F

Location of KapfenbergLocation

Historic Weather in Kapfenberg — Graph

°F

Kapfenberg Temperature Yesterday

Maximum temperature yesterday: 50 °F (at 1:50 PM)
Minimum temperature yesterday: 34 °F (at 4:50 AM)
Average temperature yesterday: 43 °F

High & Low Weather Summary for the Past Weeks

 TemperatureHumidityPressure
High57 °F (Feb 1, 1:50 PM)100% (Jan 26, 4:50 AM)30.42 "Hg (Jan 26, 4:50 AM)
Low21 °F (Jan 27, 7:20 AM)45% (Feb 4, 11:20 AM)29.50 "Hg (Feb 9, 5:50 PM)
Average38 °F80%30.12 "Hg
* Reported Jan 25 5:20 PM — Feb 9 5:50 PM, Kapfenberg, Weather by CustomWeather, © 2016

Note: Actual official high and low records may vary slightly from our data, if they occured in-between our weather recording intervals... More about our weather records

Advertising

Kapfenberg Weather History for the Previous 24 Hours

 ConditionsComfort  
Time TempWeatherWind HumidityBarometerVisibility
5:50 PM
Tue, Feb 9
48 °FPartly cloudy.20 mph58%29.50 "Hg12 mi
4:50 PM48 °FBroken clouds.16 mph58%29.56 "Hg19 mi
4:20 PM50 °FBroken clouds.16 mph54%29.56 "Hg19 mi
3:50 PM50 °FBroken clouds.20 mph54%29.59 "Hg19 mi
3:20 PM50 °FBroken clouds.22 mph54%29.59 "Hg19 mi
2:50 PM50 °FBroken clouds.22 mph54%29.62 "Hg19 mi
2:20 PM50 °FBroken clouds.18 mph54%29.65 "Hg19 mi
1:50 PM48 °FBroken clouds.18 mph58%29.65 "Hg19 mi
1:20 PM50 °FBroken clouds.20 mph54%29.68 "Hg19 mi
12:50 PM46 °FBroken clouds.2 mph66%29.71 "Hg19 mi
12:20 PM45 °FBroken clouds.2 mph71%29.74 "Hg19 mi
11:50 AM43 °FBroken clouds.2 mph71%29.77 "Hg19 mi
10:50 AM37 °FPartly sunny.3 mph81%29.83 "Hg19 mi
10:20 AM36 °FPartly sunny.2 mph81%29.83 "Hg19 mi
9:50 AM36 °FPartly sunny.1 mph81%29.83 "Hg19 mi
9:20 AM36 °FPartly sunny.No wind81%29.86 "Hg19 mi
8:50 AM32 °FScattered clouds.2 mph93%29.86 "Hg19 mi
8:20 AM30 °FScattered clouds.2 mph86%29.89 "Hg19 mi
7:50 AM30 °FPassing clouds.2 mph86%29.86 "Hg19 mi
7:20 AM28 °FPassing clouds.2 mph93%29.86 "Hg19 mi
6:50 AM28 °FPassing clouds.3 mph93%29.86 "Hg19 mi
5:50 AM30 °FClear.2 mph93%29.86 "Hg19 mi
4:50 AM30 °FClear.3 mph86%29.86 "Hg19 mi
9:50 PM
Mon, Feb 8
46 °FPassing clouds.7 mph53%29.80 "Hg19 mi
8:50 PM41 °FPassing clouds.2 mph70%29.80 "Hg19 mi
7:50 PM48 °FPassing clouds.6 mph58%29.80 "Hg19 mi
Weather by CustomWeather, © 2016

See weather overviewHow to use our weather pages